User: anonymous   Login
Location: Cheching
(60.0667°N, 164.2167°W)
Time: 10:52:25
(UTC+00:00)
Language:

DX 1 - Orbit

View from above orbital plane
View from above orbital plane
View from above satellite
View from above satellite

Ground track
Ground track

The orbit data is extracted from the following two-line orbital elements,

1 40071U 14037C   21017.09189171  .00000116  00000-0  22316-4 0  9990
2 40071  98.4575 213.3740 0008493 164.4000 195.7465 14.81441900352886
Epoch (UTC): 17 January 2021 02:12:19
Eccentricity: 0.0008493
inclination: 98.4575°
perigee height: 619 km
apogee height: 631 km
right ascension of ascending node: 213.3740°
argument of perigee: 164.4000°
revolutions per day: 14.81441900
mean anomaly at epoch: 195.7465°
orbit number at epoch: 35288

The dashed part of the orbit path shows where the satellite is in the earth's shadow,  

DLR